Header for Extended Forecast Station List Page

Search by: ID | Name | Date | Parm | Value | Avg | % Avg
Sort by: ID | Name | Date | Parm | Value | Avg | % Avg

Enter search or view all records.

Click on id for station plot
#IDNameDateParmValueAvg% Avg
0HWRI1BIG LOST-AT HOWELL RANCH NEAR CHILLY09-21-2020DISCHARGE (KAF)182477
1MACI1BIG LOST-MACKAY RESERVOIR NEAR MACKAY09-21-2020INFLOW (KAF)339389
2HALI1BIG WOOD-AT HAILEY09-21-2020DISCHARGE (KAF)264361
3MAGI1BIG WOOD-MAGIC DAM09-21-2020INFLOW (KAF)122745
4BITM8BITTERROOT-NEAR MISSOULA09-21-2020DISCHARGE (KAF)18523579
5BONM8BLACKFOOT-NEAR BONNER09-21-2020DISCHARGE (KAF)13714396
6BIGI1BOISE-AT GLENWOOD BRIDGE09-21-2020DISCHARGE (KAF)245047
7LUCI1BOISE-LUCKY PEAK DAM09-21-2020INFLOW (KAF)37MM
8PARI1BOISE-NEAR PARMA09-21-2020DISCHARGE (KAF)16421975
9HOTI1BRUNEAU-NEAR HOT SPRINGS09-21-2020DISCHARGE (KAF)212583
10BULO3BULLY CREEK-BULLY CREEK DAM09-21-2020INFLOW (KAF)0116
11BUDW1BUMPING-BUMPING LAKE DAM09-21-2020INFLOW (KAF)283190
12CHDW1CHELAN-LAKE CHELAN DAM09-21-2020INFLOW (KAF)299158190
13ABOM8CLARK FORK-ABOVE MISSOULA09-21-2020DISCHARGE (KAF)373360104
14DLGM8CLARK FORK-AT DEER LODGE09-21-2020DISCHARGE (KAF)7463117
15SRGM8CLARK FORK-AT ST REGIS09-21-2020DISCHARGE (KAF)68577788
16BELM8CLARK FORK-BELOW MISSOULA09-21-2020DISCHARGE (KAF)55760292
17CABI1CLARK FORK-CABINET GORGE DAM09-21-2020INFLOW (KAF)2687347977
18NOXM8CLARK FORK-NOXON RAPIDS DAM09-21-2020INFLOW (KAF)2453335273
19DRMM8CLARK FORK-NR DRUMMOND09-21-2020DISCHARGE (KAF)154MM
20CLUW1CLE ELUM-CLE ELUM LAKE09-21-2020INFLOW (KAF)12092130
21ORFI1CLEARWATER-AT OROFINO09-21-2020DISCHARGE (KAF)41757473
22SPDI1CLEARWATER-AT SPALDING09-21-2020DISCHARGE (KAF)885138064
23COEI1COEUR D ALENE-COEUR D ALENE LAKE09-21-2020INFLOW (KAF)32847469
24CIBW1COLUMBIA-AT INTL BOUNDARY09-21-2020DISCHARGE (KAF)18399MM
25BONO3COLUMBIA-BONNEVILLE DAM09-21-2020INFLOW (KAF)286823281087
26CHJW1COLUMBIA-CHIEF JOSEPH DAM09-21-2020INFLOW (KAF)1998419990100
27GCDW1COLUMBIA-GRAND COULEE DAM09-21-2020INFLOW (KAF)1931817396111
28JDAO3COLUMBIA-JOHN DAY DAM09-21-2020INFLOW (KAF)276002847297
29MCDW1COLUMBIA-MCNARY DAM09-21-2020INFLOW (KAF)267032777496
30PRWW1COLUMBIA-PRIEST RAPIDS DAM09-21-2020INFLOW (KAF)2140919361111
31RRHW1COLUMBIA-ROCKY REACH DAM09-21-2020INFLOW (KAF)2095920808101
32TDAO3COLUMBIA-THE DALLES DAM09-21-2020INFLOW (KAF)281703113390
33WANW1COLUMBIA-WANAPUM DAM09-21-2020INFLOW (KAF)2137019065112
34WELW1COLUMBIA-WELLS DAM09-21-2020INFLOW (KAF)2045920325101
35DEDI1DEADWOOD-NEAR LOWMAN09-21-2020INFLOW (KAF)151983
36MODO3DESCHUTES-AT MOODY NR BIGGS09-21-2020DISCHARGE (KAF)1093127686
37ARDW1ENTIAT-NEAR ARDENVOIR09-21-2020DISCHARGE (KAF)2922132
38CHEI1FALL RIVER-NEAR CHESTER09-21-2020DISCHARGE (KAF)10410896
39CFMM8FLATHEAD-AT COLUMBIA FALLS09-21-2020DISCHARGE (KAF)861123370
40KERM8FLATHEAD-SELI’Š KSANKA QLISPE’ DAM09-21-2020INFLOW (KAF)989149966
41TRYO3GRANDE RONDE-TROY09-21-2020DISCHARGE (KAF)16124566
42REXI1HENRYS FORK-AT REXBURG09-21-2020DISCHARGE (KAF)42242799
43ANTI1HENRYS FORK-AT ST. ANTHONY09-21-2020DISCHARGE (KAF)32533697
44IPDI1HENRYS FORK-ISLAND PARK DAM09-21-2020INFLOW (KAF)131122107
45HODO3HOOD-NEAR TUCKER BRIDGE09-21-2020DISCHARGE (KAF)189180105
46SERO3JOHN DAY-AT SERVICE CK09-21-2020DISCHARGE (KAF)9713075
47KADW1KACHESS-KACHESS DAM09-21-2020INFLOW (KAF)4037108
48LAUW1KETTLE-AT LAURIER09-21-2020DISCHARGE (KAF)144128112
49PITW1KLICKITAT-NEAR PITT09-21-2020DISCHARGE (KAF)19322785
50BFEI1KOOTENAI-AT BONNERS FERRY09-21-2020STAGE (FT)MMM
51LEOI1KOOTENAI-AT LEONIA09-21-2020DISCHARGE (KAF)26271738151
52LYDM8KOOTENAI-LIBBY DAM09-21-2020INFLOW (KAF)988103695
53LWRI1LITTLE WOOD-LITTLE WOOD DAM09-21-2020INFLOW (KAF)111573
54BERO3MALHEUR-AGENCY VALLEY DAM09-21-2020INFLOW (KAF)111385
55WRMO3MALHEUR-WARM SPRINGS DAM09-21-2020INFLOW (KAF)1913142
56MYKO3MCKAY CREEK-NEAR PILOT ROCK09-21-2020DISCHARGE (KAF)109112
57PATW1METHOW-NEAR PATEROS09-21-2020DISCHARGE (KAF)112101111
58WGCM8MF FLATHEAD-NEAR WEST GLACIER09-21-2020DISCHARGE (KAF)7818143
59CLFW1NACHES-NEAR CLIFFDEL09-21-2020DISCHARGE (KAF)859292
60NACW1NACHES-NEAR NACHES09-21-2020DISCHARGE (KAF)9273127
61DWRI1NF CLEARWATER-DWORSHAK DAM09-21-2020INFLOW (KAF)29743369
62FCFM8NF FLATHEAD-NEAR COLUMBIA FALLS09-21-2020DISCHARGE (KAF)13720965
63MONO3NF JOHN DAY-AT MONUMENT09-21-2020DISCHARGE (KAF)486772
64CSDI1NF PAYETTE-CASCADE DAM09-21-2020INFLOW (KAF)829091
65TONW1OKANOGAN-NEAR TONASKET09-21-2020DISCHARGE (KAF)358278129
66OWYO3OWYHEE-OWYHEE DAM09-21-2020INFLOW (KAF)616791
67EMMI1PAYETTE-NEAR EMMETT09-21-2020DISCHARGE (KAF)32135291
68ALFW1PEND OREILLE-ALBENI FALLS DAM09-21-2020INFLOW (KAF)2893400272
69HOPI1PEND OREILLE-PEND OREILLE LAKE NR HOPE09-21-2020LAKE ELEVATION (FT)MMM
70PIHI1PORTNEUF-AT POCATELLO09-21-2020DISCHARGE (KAF)545499
71PRTI1PRIEST-NEAR PRIEST RIVER09-21-2020DISCHARGE (KAF)8822040
72RCCM8ROCK CREEK-NEAR CLINTON09-21-2020DISCHARGE (KAF)6853127
73WHBI1SALMON-AT WHITEBIRD09-21-2020DISCHARGE (KAF)1034110793
74ARAI1SF BOISE-ANDERSON RANCH DAM09-21-2020INFLOW (KAF)677294
75HHWM8SF FLATHEAD-HUNGRY HORSE DAM09-21-2020INFLOW (KAF)14624360
76PLDI1SF SNAKE-PALISADES DAM09-21-2020INFLOW (KAF)817723113
77SIFI1SNAKE-AB EAGLE ROCK NR IDAHO FALLS09-21-2020DISCHARGE (KAF)875853103
78AFRI1SNAKE-AMERICAN FALLS RESERVOIR09-21-2020INFLOW (KAF)14261417101
79SNAI1SNAKE-AT BLACKFOOT09-21-2020DISCHARGE (KAF)733679108
80MILI1SNAKE-AT MILNER09-21-2020DISCHARGE (KAF)94112
81WEII1SNAKE-AT WEISER09-21-2020DISCHARGE (KAF)2782352079
82SWAI1SNAKE-BELOW SWAN FALLS09-21-2020DISCHARGE (KAF)1857246675
83BRNI1SNAKE-BROWNLEE DAM09-21-2020INFLOW (KAF)2940358882
84IHDW1SNAKE-ICE HARBOR DAM09-21-2020INFLOW (KAF)4772687869
85JLKW4SNAKE-JACKSON LAKE AT DAM09-21-2020INFLOW (KAF)8311274
86LGSW1SNAKE-LITTLE GOOSE DAM09-21-2020INFLOW (KAF)4743692269
87LGDW1SNAKE-LOWER GRANITE DAM09-21-2020INFLOW (KAF)4743688369
88LMNW1SNAKE-LOWER MONUMENTAL DAM09-21-2020INFLOW (KAF)4770696069
89ALPW4SNAKE-NEAR ALPINE09-21-2020DISCHARGE (KAF)542459118
90ANAW1SNAKE-NEAR ANATONE09-21-2020DISCHARGE (KAF)3858533172
91BFTI1SNAKE-NEAR BLACKFOOT09-21-2020DISCHARGE (KAF)754730103
92HEII1SNAKE-NEAR HEISE09-21-2020DISCHARGE (KAF)741741100
93JKSW4SNAKE-NEAR JACKSON09-21-2020DISCHARGE (KAF)485366133
94SHYI1SNAKE-NEAR SHELLEY09-21-2020DISCHARGE (KAF)880802110
95LLKW1SPOKANE-AT LONGLAKE09-21-2020INFLOW (KAF)68492674
96SPOW1SPOKANE-AT SPOKANE09-21-2020DISCHARGE (KAF)504MM
97SJMI1ST JOE-AT ST MARIES09-21-2020STAGE (FT)MMM
98SATI1ST MARIES-NEAR SANTA09-21-2020DISCHARGE (KAF)202481
99STRM8ST. REGIS-NEAR ST. REGIS09-21-2020DISCHARGE (KAF)203457
100TNAW1TEANAWAY-BELOW FORKS09-21-2020DISCHARGE (KAF)222878
101TEAI1TETON-NEAR ST. ANTHONY09-21-2020DISCHARGE (KAF)11311895
102RILW1TIETON-RIMROCK LAKE NEAR RIMROCK09-21-2020INFLOW (KAF)576292
103PDTO3UMATILLA-AT PENDLETON09-21-2020DISCHARGE (KAF)484998
104GIBO3UMATILLA-NEAR GIBBON09-21-2020DISCHARGE (KAF)222491
105UMAO3UMATILLA-NEAR UMATILLA09-21-2020DISCHARGE (KAF)9948205
106TCHW1WALLA WALLA-NEAR TOUCHET09-21-2020DISCHARGE (KAF)8070113
107WSRI1WEISER-NEAR WEISER09-21-2020DISCHARGE (KAF)405672
108PESW1WENATCHEE-AT PESHASTIN09-21-2020DISCHARGE (KAF)367273134
109UNDW1WHITE SALMON-NEAR UNDERWOOD09-21-2020DISCHARGE (KAF)13819870
110RIDI1WILLOW CREEK-RIRIE DAM09-21-2020INFLOW (KAF)6877
111EASW1YAKIMA-AT EASTON09-21-2020DISCHARGE (KAF)496082
112KIOW1YAKIMA-AT KIONA09-21-2020DISCHARGE (KAF)56661093
113UMTW1YAKIMA-AT UMTANUM09-21-2020DISCHARGE (KAF)21726781
114KEDW1YAKIMA-KEECHELUS LAKE09-21-2020INFLOW (KAF)5546120
115PARW1YAKIMA-NEAR PARKER09-21-2020DISCHARGE (KAF)31535689